Regional Weather Roundup
Issued by NWS

Home | Current Version | Previous Version | Graphics & Text | Print | Product List | Glossary On
Versions: 1 2 3 4 5 6 7 8 9 10 11 12 13 14 15 16 17 18 19 20 21 22 23 24 25 26 27 28 29 30 31 32 33 34 35 36 37 38 39 40 41 42 43 44 45 46 47 48 49 50
063
ASUS43 KIND 102009
RWRIN

WEATHER ROUNDUP FOR INDIANA
NATIONAL WEATHER SERVICE INDIANAPOLIS IN
300 PM EST WED FEB 10 2016

NOTE: "FAIR" INDICATES FEW OR NO CLOUDS BELOW 12,000 FEET WITH NO
SIGNIFICANT WEATHER AND/OR OBSTRUCTIONS TO VISIBILITY.

* - STATION DOES NOT REPORT WEATHER SUCH AS PRECIPITATION OR FOG.

+ - STATION NOT QUALITY CONTROLLED BY THE NATIONAL WEATHER SERVICE.
    USE DATA WITH CAUTION...ESPECIALLY DEWPOINT AND RELATIVE
    HUMIDITY OBSERVATIONS.

INZ001>003-010>013-019-020-102100-
NORTHWEST INDIANA

CITY           SKY/WX    TMP DP  RH WIND       PRES   REMARKS
GARY /AIRPORT/ PTSUNNY   19   3  49 W12       30.02S WCI   7
KNOX *+        MOSUNNY   18   3  53 W15       30.00R WCI   3
LA PORTE +     CLOUDY    18   8  65 W15       29.99R WCI   3
MICHIGAN CITY+ CLOUDY    18   9  68 W12G20    30.00R WCI   5
MONTICELLO +   CLOUDY    16   2  54 W12       30.02R WCI   3
RENSSELAER +   CLOUDY    18   3  53 W9        30.02S WCI   6
VALPARAISO     CLOUDY    17   5  59 NW3       30.00R

$$

LMZ046-743>745-102100-
SOUTHERN LAKE MICHIGAN

STATION/POSITION TIME  TEMP    WIND        PRES    WAVE
                       AIR SEA DIR/SP/G            HT
                 (UTC) (F)     (DEG/KT/KT) (MB)    (FT)
BURNS HARBOR     1900   16     290/ 10/ 12 1016.6F
MICHIGAN CITY    1900   15     260/ 16/ 18   N/A

$$

INZ004-005-014>016-021>024-102100-
NORTH CENTRAL INDIANA

CITY           SKY/WX    TMP DP  RH WIND       PRES   REMARKS
ELKHART        FLURRIES  19   9  63 NW16      29.94R WCI   5
GOSHEN         LGT SNOW  17  12  80 W17       29.93S VSB 1   WCI   1
LOGANSPORT +   PTSUNNY   18   1  49 W12       30.01S WCI   5
PERU/GRISSOM   MOSUNNY   17   6  61 W18       29.97S WCI   1
ROCHESTER +    MOSUNNY   23   3  42 W12G18    29.98R WCI  12
SOUTH BEND     LGT SNOW  16  10  77 W17       29.96R VSB 1   WCI   0
WARSAW +       CLOUDY    19  10  68 W18       29.94R WCI   4

$$

INZ006>009-017-018-025>027-102100-
NORTHEAST INDIANA

CITY           SKY/WX    TMP DP  RH WIND       PRES   REMARKS
ANGOLA *+      PTSUNNY   19  10  68 NW10      29.87R WCI   8
AUBURN +       CLOUDY    21  12  68 W16G22    29.91R WCI   7
FORT WAYNE     FLURRIES  23  11  60 W21G26    29.94R WCI   8
HUNTINGTON +   CLOUDY    17   3  55 W14G23    29.96R WCI   3

$$

INZ028-029-035-036-043>045-051>053-102100-
WEST CENTRAL INDIANA

CITY           SKY/WX    TMP DP  RH WIND       PRES   REMARKS
GREENCASTLE +  MOSUNNY   18   1  49 SW9       30.04F WCI   6
LAFAYETTE      CLOUDY    15   5  64 W14       30.04S WCI   0
TERRE HAUTE    MOSUNNY   18   6  59 W14       30.08F WCI   4

$$

INZ030>032-037>040-046>048-054>057-064-065-102100-
CENTRAL INDIANA

CITY           SKY/WX    TMP DP  RH WIND       PRES   REMARKS
ANDERSON       CLOUDY    16   7  67 W12G17    30.01  WCI   3
FISHERS *+     CLOUDY    14   9  79 W13       30.03R WCI   0
FRANKFORT +    PTSUNNY   16   2  53 W17       30.03S WCI   0
GREENWOOD *+   PTSUNNY   18   7  62 W14G21    30.03F WCI   4
INDIANAPOLIS   PTSUNNY   16   5  62 W10       30.02F WCI   4
-EAGLE CREEK   CLOUDY    15   5  64 W7G20     30.02F WCI   5
KOKOMO *+      PTSUNNY   16   5  62 W18G24    30.00R WCI  -1
MARION +       PTSUNNY   17   1  50 W17       29.99S WCI   1
MT COMFORT *+  CLOUDY    16   5  62 W16G22    30.02S WCI   0
SHELBYVILLE    CLOUDY    17   5  59 W14       30.02F WCI   3
ZIONSVILLE +   CLOUDY    14   5  67 W12       30.02S WCI   0

$$

INZ033-034-041-042-049-050-058-059-102100-
EAST CENTRAL INDIANA

CITY           SKY/WX    TMP DP  RH WIND       PRES   REMARKS
MUNCIE         CLOUDY    17   6  62 W15G23    29.98S WCI   2

$$

INZ060-061-067>069-081>083-085>088-102100-
SOUTHWEST INDIANA

CITY           SKY/WX    TMP DP  RH WIND       PRES   REMARKS
EVANSVILLE     CLOUDY    24   9  52 SW9       30.14F WCI  14
HUNTINGBURG *+ CLOUDY    21   9  58 W16       30.12S WCI   7
WASHINGTON +   CLOUDY    21   6  52 W9        30.10F WCI  10

$$

INZ062-063-066-070>080-084-089>092-102100-
SOUTH CENTRAL AND SOUTHEAST INDIANA

CITY           SKY/WX    TMP DP  RH WIND       PRES   REMARKS
BEDFORD +      PTSUNNY   19   9  63 W13G21    30.07F WCI   7
BLOOMINGTON    MOSUNNY   18   3  52 W12       30.04F WCI   5
MADISON *+     PTSUNNY   21   5  49 SW12G17   30.07S WCI   9
NORTH VERNON + PTSUNNY   19   5  53 CALM      30.05F
SEYMOUR +      MOSUNNY   23   9  54 W16G23    30.07S WCI  10

$$





USA.gov is the U.S. government's official web portal to all federal, state and local government web resources and services.